Louisville Bowman, KY

9:13 AM EST on December 07, 2019 (GMT -0500)
Bowman

Weather History for KLOU - November, 2019

Change the Weather History Date:

Friday, November 22, 2019

  Actual Average Record
Temperature  
Mean Temperature 48 °F 45 °F  
Max Temperature 57 °F 53 °F 74 °F (1992)
Min Temperature 38 °F 36 °F 10 °F (1964)
Degree Days  
Heating Degree Days 18 20  
Month to date heating degree days 530 350  
Since 1 July heating degree days 735 626  
Cooling Degree Days 0 0  
Month to date cooling degree days 0 0  
Year to date cooling degree days 1794 1442  
Moisture  
Dew Point 40 °F    
Average Humidity 81    
Maximum Humidity 93    
Minimum Humidity 65    
Precipitation  
Precipitation 0.47 in 0.12 in 1.47 in (1953)
Month to date precipitation 1.54 2.61  
Year to date precipitation 50.02 40.53  
Sea Level Pressure  
Sea Level Pressure 30.07 in    
Wind  
Wind Speed 6 mph ()    
Max Wind Speed 13 mph    
Max Gust Speed 24 mph    
Visibility 7.8 miles    
Events Rain    
T = Trace of Precipitation, MM = Missing Value Source: Averaged Metar Reports

Daily Weather History Graph

Daily Weather History Graph

Search for Another Location

Airport or City:

Astronomy

Nov. 22, 2019 Rise Set
Actual Time 7:31 AM EST 5:26 PM EST
Civil Twilight 7:02 AM EST 5:54 PM EST
Nautical Twilight 6:30 AM EST 6:26 PM EST
Astronomical Twilight 5:58 AM EST 6:58 PM EST
Moon 2:41 AM EST (11/22) 3:21 PM EST (11/22)
Length of Visible Light 10h 52m
Length of Day
9h 54m
Waning Crescent, 20% of the Moon is Illuminated
Nov 22
Waning Crescent
Nov 26
New
Dec 4
First Quarter
Dec 12
Full
Dec 18
Last Quarter

Hourly Weather History & Observations

Time (EST) Temp. Windchill Dew Point Humidity Pressure Visibility Wind Dir Wind Speed Gust Speed Precip Events Conditions
12:53 AM 55.9 °F - 48.9 °F 77% 29.98 in 8.0 mi SW 8.1 mph - N/A   Overcast
1:40 AM 55.0 °F - 50.0 °F 83% 29.99 in 4.0 mi SW 8.1 mph - 0.03 in Rain Light Rain
1:53 AM 54.0 °F - 51.1 °F 90% 29.99 in 6.0 mi SW 8.1 mph - 0.04 in Rain Light Rain
2:53 AM 54.0 °F - 51.1 °F 90% 29.97 in 5.0 mi SSW 5.8 mph - 0.08 in Rain Light Rain
3:53 AM 53.1 °F - 50.0 °F 89% 29.98 in 4.0 mi WNW 8.1 mph - 0.05 in Rain Rain
4:00 AM 52.0 °F - 48.9 °F 89% 29.98 in 4.0 mi NW 5.8 mph - 0.01 in Rain Rain
4:32 AM 51.1 °F - 48.0 °F 89% 29.99 in 9.0 mi NNW 8.1 mph - 0.06 in Rain Light Rain
4:53 AM 50.0 °F - 46.0 °F 86% 30.00 in 4.0 mi NW 8.1 mph - 0.09 in Rain Light Rain
5:02 AM 48.9 °F - 46.0 °F 90% 30.01 in 5.0 mi NW 10.4 mph - 0.01 in Rain Light Rain
5:53 AM 48.0 °F - 44.1 °F 86% 30.02 in 5.0 mi NW 8.1 mph - 0.13 in Rain Light Rain
6:39 AM 46.0 °F 40.6 °F 42.1 °F 86% 30.05 in 10.0 mi NNW 11.5 mph 24.2 mph 0.06 in Rain Light Rain
6:50 AM 44.6 °F 40.2 °F 39.2 °F 81% 30.07 in 10.0 mi NNW 8.1 mph 19.6 mph 0.06 in Rain Light Rain
6:53 AM 45.0 °F 39.7 °F 39.9 °F 82% 30.07 in 10.0 mi North 10.4 mph 18.4 mph 0.06 in Rain Light Rain
7:10 AM 44.1 °F 39.0 °F 39.9 °F 85% 30.08 in 10.0 mi North 9.2 mph 18.4 mph 0.00 in   Overcast
7:53 AM 43.0 °F 39.5 °F 39.9 °F 89% 30.09 in 2.0 mi North 5.8 mph - 0.01 in Rain Light Rain
8:09 AM 43.0 °F 39.5 °F 39.9 °F 89% 30.10 in 2.0 mi NNW 5.8 mph - 0.01 in Rain Light Rain
8:15 AM 43.0 °F 40.3 °F 39.9 °F 89% 30.11 in 2.0 mi NNW 4.6 mph - 0.01 in Rain Light Rain
8:42 AM 43.0 °F 39.5 °F 39.0 °F 86% 30.11 in 2.0 mi NNW 5.8 mph - 0.01 in   Overcast
8:53 AM 43.0 °F 40.3 °F 39.0 °F 86% 30.11 in 10.0 mi North 4.6 mph - 0.01 in   Overcast
9:23 AM 43.0 °F 39.5 °F 39.0 °F 86% 30.10 in 10.0 mi North 5.8 mph - N/A   Overcast
9:53 AM 44.1 °F 39.5 °F 39.0 °F 82% 30.12 in 10.0 mi North 8.1 mph - N/A   Overcast
10:53 AM 44.1 °F 39.5 °F 39.0 °F 82% 30.14 in 10.0 mi NNE 8.1 mph - N/A   Overcast
11:45 AM 45.0 °F 41.8 °F 39.0 °F 80% 30.13 in 10.0 mi North 5.8 mph - N/A   Overcast
11:53 AM 45.0 °F 41.2 °F 39.0 °F 80% 30.12 in 10.0 mi North 6.9 mph - N/A   Overcast
12:53 PM 46.0 °F 41.0 °F 37.9 °F 73% 30.12 in 10.0 mi NNE 10.4 mph - N/A   Overcast
1:53 PM 46.0 °F 43.1 °F 37.0 °F 71% 30.11 in 10.0 mi North 5.8 mph - N/A   Mostly Cloudy
2:53 PM 46.9 °F - 36.0 °F 66% 30.09 in 10.0 mi NNE 8.1 mph - N/A   Partly Cloudy
3:53 PM 46.0 °F 42.5 °F 35.1 °F 66% 30.11 in 10.0 mi North 6.9 mph - N/A   Partly Cloudy
4:53 PM 45.0 °F 42.6 °F 34.0 °F 65% 30.11 in 10.0 mi NNE 4.6 mph - N/A   Clear
5:53 PM 42.1 °F 39.2 °F 34.0 °F 73% 30.10 in 10.0 mi NNE 4.6 mph - N/A   Clear
6:53 PM 39.9 °F - 34.0 °F 79% 30.12 in 10.0 mi Calm Calm - N/A   Clear
7:53 PM 39.9 °F 37.8 °F 34.0 °F 79% 30.13 in 10.0 mi East 3.5 mph - N/A   Clear
8:53 PM 39.0 °F 34.8 °F 33.1 °F 79% 30.10 in 10.0 mi NE 5.8 mph - N/A   Clear
9:53 PM 39.0 °F 35.7 °F 33.1 °F 79% 30.10 in 10.0 mi NE 4.6 mph - N/A   Clear
10:53 PM 39.0 °F 34.8 °F 32.0 °F 76% 30.07 in 10.0 mi NE 5.8 mph - N/A   Clear
11:53 PM 39.0 °F - 32.0 °F 76% 30.07 in 10.0 mi Calm Calm - N/A   Clear